Regional Weather Roundup
Issued by NWS Huntsville, AL

Home | Current Version | Previous Version | Text Only | Print | Product List | Glossary On
Versions: 1 2 3 4 5 6 7 8 9 10 11 12 13 14 15 16 17 18 19 20 21 22 23 24 25 26 27 28 29 30 31 32 33 34 35 36 37 38 39 40 41 42 43 44 45 46 47 48 49 50
000
ASUS44 KHUN 072010
RWRHUN

WEATHER ROUNDUP FOR THE TENNESSEE VALLEY
NATIONAL WEATHER SERVICE HUNTSVILLE AL
300 PM CDT TUE JUL 07 2015

ALZ001>004-072100-
NORTHWEST ALABAMA

CITY           SKY/WX    TMP DP  RH WIND       PRES   REMARKS
COURTLAND HCN    N/A     90 N/A N/A SW14        N/A
RUSSELLVILLE     N/A     88 N/A N/A MISG        N/A
SHOALS AIRPORT MOSUNNY   91  70  49 W12       30.09F HX  96
SHOALS TVA RES   N/A     88 N/A N/A MISG        N/A
$$

ALZ005>007-016-072100-
NORTH CENTRAL ALABAMA

CITY           SKY/WX    TMP DP  RH WIND       PRES   REMARKS
CULLMAN AG STN   N/A     88 N/A N/A SW9         N/A
DECATUR AP     MOSUNNY   91  69  48 W13       30.10F HX  96
HUNTSVILLE AP  PTSUNNY   93  68  43 SW12      30.10F HX  97
HUN NWS/UAH      N/A     90  66  44 SW9         N/A  HX  93
MERIDIANVILLE  MOSUNNY   88  63  42 SW12      30.10F
REDSTONE ARSN  MOSUNNY   89  70  54 SW14      30.09F HX  93
VINEMONT AP    FAIR      87  70  57 SW8       30.15F HX  92
$$

ALZ008>010-072100-
NORTHEAST ALABAMA

CITY           SKY/WX    TMP DP  RH WIND       PRES   REMARKS
ALBERTVILLE    MOSUNNY   90  75  62 W13       30.13F HX 100
FORT PAYNE     MOSUNNY   88  64  45 SW9       30.12F
SCOTTSBORO AP  MOSUNNY   90  70  51 SW8       30.11F HX  95
SCOTTSBORO HCN   N/A     88 N/A N/A MISG        N/A
VALLEY HEAD      N/A     88 N/A N/A MISG        N/A
$$

TNZ076-096-097-072100-
SOUTHEASTERN MIDDLE TENNESSEE

CITY           SKY/WX    TMP DP  RH WIND       PRES   REMARKS
TULLAHOMA      SUNNY     86  70  58 S14       30.11F HX  90
WINCHESTER     MOSUNNY   90  72  55 SW12      30.11F HX  96
$$

...SURROUNDING SITES...

CITY           SKY/WX    TMP DP  RH WIND       PRES   REMARKS
ATLANTA        MOSUNNY   89  69  51 SW9       30.14F HX  93
ANNISTON       SUNNY     90  67  46 W10       30.13F HX  93
BIRMINGHAM     MOSUNNY   91  70  49 W8        30.14F HX  96
CHATTANOOGA    MOSUNNY   90  67  46 SW9       30.11S HX  93
DALTON         MOSUNNY   88  72  58 SW5       30.12S HX  94
GADSDEN        MOSUNNY   97  68  38 SW6       30.11S HX 101
GOLDEN TRNGL   PTSUNNY   91  73  55 SW9       30.08F HX 100
HALEYVILLE     FAIR      88  73  60 S10       30.15F HX  95
JACKSON TN     MOSUNNY   91  75  59 SW13G20   30.02F HX 101
MEMPHIS        MOSUNNY   91  74  57 SW12G20   30.03S HX 100
NASHVILLE      PTSUNNY   88  71  57 SW12G18   30.05S HX  94
OXFORD MS      FAIR      86  70  58 SW10G20   30.07F HX  90
ROME           SUNNY     90  68  48 W7        30.11F HX  94
SAVANNAH       SUNNY     88  32  13 SW16      30.06F
TUPELO         MOSUNNY   92  72  51 SW8       30.06F HX  99
TUSCALOOSA     MOSUNNY   92  71  50 SW6       30.11F HX  98
$$

...GULF COAST WEATHER...

CITY           SKY/WX    TMP DP  RH WIND       PRES   REMARKS
GULFPORT       MOSUNNY   88  75  65 S10       30.13S HX  97
PASCAGOULA     SUNNY     89  74  60 SW9       30.13F HX  98
MOBILE         MOSUNNY   90  72  55 S10       30.14S HX  97
GULF SHORES    CLEAR     89  73  58 SW7       30.13S HX  97
PENSACOLA      MOSUNNY   88  75  65 SW12      30.12F HX  97
DESTIN         SUNNY     88  76  67 VRB7      30.12F HX  99
PANAMA CITY    MOSUNNY   89  73  58 W13       30.12F HX  97
APPALACHICOLA  LGT RAIN  91  75  59 S12       30.12F HX 101
$$



USA.gov is the U.S. government's official web portal to all federal, state and local government web resources and services.